Weather Roundup
Issued by NWS

Home | Current Version | Previous Version | Text Only | Print | Product List | Glossary On
Versions: 1 2 3 4 5 6 7 8 9 10 11 12 13 14 15 16 17 18 19 20 21 22 23 24 25 26 27 28 29 30 31 32 33 34 35 36 37 38 39 40 41 42 43 44 45 46 47 48 49 50
000
NZUS93 KARX 290059
HRRWXR

CURRENT HOURLY OBSERVATIONS ACROSS
MUCH OF THE UPPER MISSISSIPPI VALLEY
NATIONAL WEATHER SERVICE LA CROSSE WI
800 PM CDT SUN MAY 28 2017


...SOUTHEAST MINNESOTA...


CITY           SKY/WX    TMP DP  RH WIND       PRES   REMARKS
ROCHESTER      PTCLDY    66  45  46 N13       29.75S
ROCHESTER/MAYO FAIR      68  44  40 NW12G18   29.75R
WINONA         PTCLDY    70  45  40 NW9       29.72S
AUSTIN         CLEAR     70  39  32 NW15G21   29.76S
ALBERT LEA     CLEAR     72  39  30 NW13G18   29.77S
DODGE CENTER   CLEAR     66  45  45 W8        29.76S
PRESTON        CLEAR     66  41  40 NW10      29.76S
OWATONNA       PTCLDY    66  45  45 W8        29.76S
FARIBAULT      CLEAR     66  45  45 W8        29.75F
$$

...ELSEWHERE IN MINNESOTA...


CITY           SKY/WX    TMP DP  RH WIND       PRES   REMARKS
MINNEAPOLIS    MOCLDY    66  44  45 W9        29.72F
INTNL FALLS    LGT RAIN  55  49  80 NW9       29.62S
DULUTH         CLOUDY    58  46  64 NW12      29.65S
RED WING       CLEAR     68  37  32 NW13G18   29.72S
REDWOOD FALLS  PTCLDY    63  44  50 NW12      29.79S
MANKATO        CLEAR     69  40  34 W13       29.76S
WORTHINGTON    CLOUDY    63  43  48 NW37G45   29.87R
FAIRMONT       PTCLDY    69  39  33 NW16G24   29.81R
$$

...SOUTHWEST WISCONSIN...


CITY           SKY/WX    TMP DP  RH WIND       PRES   REMARKS
LA CROSSE      CLEAR     71  45  39 W9        29.71S
PRAIRIE DU CHI CLEAR     73  38  28 W10       29.74R
BOSCOBEL       CLEAR     72  44  36 W5        29.74R
LONE ROCK      NOT AVBL
PLATTEVILLE    CLEAR     71  45  39 W8        29.76R
FORT MC COY    CLEAR     70  43  37 W8        29.73R
MAUSTON-NEW LI PTCLDY    69  45  41 W13G20    29.71S
VIROQUA        FAIR      69  42  37 CALM      29.75S
WIS DELLS      CLEAR     68  44  42 W7        29.72S
$$

...ELSEWHERE IN WISCONSIN...


CITY           SKY/WX    TMP DP  RH WIND       PRES   REMARKS
MILWAUKEE      PTCLDY    74  46  36 W12G21    29.71R
MADISON        PTCLDY    69  45  41 VRB6      29.73R
GREEN BAY      CLEAR     67  48  50 W12       29.66R
EAU CLAIRE     NOT AVBL
BLACK RVR FLS  FAIR      69  41  35 W8        29.70S
MEDFORD        CLOUDY    58  48  70 W12G17    29.71S
WAUSAU         CLOUDY    57  52  83 W8        29.68F
WIS RAPIDS     MOCLDY    67  47  48 NW6       29.71R
MARSHFIELD     PTCLDY    62  46  55 NW9       29.70R
RICE LAKE      PTCLDY    58  52  79 W5        29.73S
$$

...NORTHEAST IOWA...


CITY           SKY/WX    TMP DP  RH WIND       PRES   REMARKS
WATERLOO       CLEAR     72  39  30 W9G20     29.76R
DUBUQUE        MOCLDY    69  48  47 NW5       29.77R
DECORAH        CLEAR     70  41  35 NW9G15    29.74F
MASON CITY     PTCLDY    70  39  32 NW13      29.80R
CHARLES CITY   CLEAR     73  37  27 W15G22    29.77S
OELWEIN        PTCLDY    73  41  31 NW20G25   29.77S
$$

...ELSEWHERE IN IOWA...


CITY           SKY/WX    TMP DP  RH WIND       PRES   REMARKS
DES MOINES     PTCLDY    75  40  28 NW14      29.82R
IOWA CITY      PTCLDY    74  53  48 SW6       29.78F
FORT DODGE     CLEAR     73  39  29 NW10G21   29.83S
MARSHALLTOWN   CLEAR     71  45  39 NW15      29.79R
CEDAR RAPIDS   PTCLDY    71  48  43 W12       29.77R
$$

...NORTHERN ILLINOIS...


CITY           SKY/WX    TMP DP  RH WIND       PRES   REMARKS
CHICAGO-OHARE  PTCLDY    74  46  36 W15       29.74R
CHICAGO-MIDWAY PTCLDY    74  53  48 W13       29.74S
MOLINE         PTCLDY    73  49  42 SW8       29.78S
ROCKFORD       PTCLDY    70  47  43 W8        29.77R
PEORIA         CLEAR     74  45  35 NW6       29.81R
$$

NOTE: "FAIR" INDICATES FEW OR NO CLOUDS BELOW 12,000 FEET WITH NO
SIGNIFICANT WEATHER AND/OR OBSTRUCTIONS TO VISIBILITY. WIND
SPEEDS ARE IN MILES-PER-HOUR.




USA.gov is the U.S. government's official web portal to all federal, state and local government web resources and services.